Location: Grodzisk Wielkopolski
(52.2262°N, 16.3624°E)
Time: 15:34:02
(UTC+02:00)

ISS - Visible Passes

Search period start: 22 September 2018 00:00
Search period end: 02 October 2018 00:00
Orbit: 403 x 408 km, 51.6° (Epoch: 22 September)

Date Brightness Start Highest point End Pass type
(mag) Time Alt. Az. Time Alt. Az. Time Alt. Az.
22 Sep -1.5 20:28:06 10° S 20:28:50 13° S 20:28:50 13° S visible
23 Sep -1.6 19:37:49 10° SSE 19:38:39 11° SE 19:39:30 10° ESE visible
23 Sep -1.5 21:11:22 10° SW 21:12:17 17° SW 21:12:17 17° SW visible
24 Sep -2.8 20:19:49 10° SSW 20:22:42 28° SSE 20:22:49 28° SE visible
25 Sep -2.2 19:28:30 10° SSW 19:30:57 19° SE 19:33:12 11° E visible
25 Sep -2.6 21:03:46 10° WSW 21:05:53 35° SW 21:05:53 35° SW visible
26 Sep -3.4 20:11:59 10° SW 20:15:09 45° SSE 20:16:08 33° ESE visible
26 Sep -0.9 21:48:13 10° W 21:48:49 14° W 21:48:49 14° W visible
27 Sep -2.8 19:20:20 10° SW 19:23:19 32° SSE 19:26:17 10° E visible
27 Sep -3.3 20:56:17 10° WSW 20:58:57 54° WSW 20:58:57 54° WSW visible
28 Sep -3.8 20:04:22 10° WSW 20:07:39 65° SSE 20:09:02 31° E visible
28 Sep -1.1 21:40:48 10° W 21:41:42 17° W 21:41:42 17° W visible
29 Sep -3.4 19:12:31 10° WSW 19:15:44 50° SSE 19:18:57 10° E visible
29 Sep -3.5 20:48:50 10° W 20:51:43 65° WSW 20:51:43 65° WSW visible
30 Sep -3.9 19:56:50 10° W 20:00:09 80° S 20:01:42 29° E visible
30 Sep -1.1 21:33:19 10° W 21:34:22 18° W 21:34:22 18° W visible
01 Oct -3.7 19:04:52 10° WSW 19:08:10 70° SSE 19:11:28 10° E visible
01 Oct -3.6 20:41:19 10° W 20:44:18 67° WSW 20:44:18 67° WSW visible
